SR1WXZ Weather Reports


time (UTC)temp
C
wind
direction
speed
KPH
gust
KPH
rain 1hr
cm
rain 24hr
cm
rain mn
cm
humidity
%
barometer
mb
20260510093048 16 150 20.9 0.0 0.00 0.00 0.00 55 1015.0
20260510092845 16 150 20.9 0.0 0.00 0.00 0.00 55 1015.0
20260510091550 16 150 20.9 0.0 0.00 0.00 0.00 55 1015.0
20260510090843 16 160 20.9 0.0 0.00 0.00 0.00 51 1015.0
20260510090048 16 160 20.9 0.0 0.00 0.00 0.00 51 1015.0
20260510084848 16 160 20.9 0.0 0.00 0.00 0.00 51 1015.0
20260510084549 16 160 20.9 0.0 0.00 0.00 0.00 51 1015.0
20260510083049 15 150 20.9 0.0 0.00 0.00 0.00 58 1015.0
20260510082846 15 150 20.9 0.0 0.00 0.00 0.00 58 1015.0
20260510081555 15 150 20.9 0.0 0.00 0.00 0.00 58 1015.0
20260510080845 15 150 19.3 0.0 0.00 0.00 0.00 58 1015.0
20260510080228 15 150 19.3 0.0 0.00 0.00 0.00 58 1015.0
20260510080048 15 150 19.3 0.0 0.00 0.00 0.00 58 1015.0
20260510074847 15 150 19.3 0.0 0.00 0.00 0.00 58 1015.0
20260510074549 15 150 19.3 0.0 0.00 0.00 0.00 58 1015.0
20260510073048 13 150 12.9 0.0 0.00 0.00 0.00 62 1016.0
20260510072846 13 150 12.9 0.0 0.00 0.00 0.00 62 1016.0
20260510071550 13 150 12.9 0.0 0.00 0.00 0.00 62 1016.0
20260510070844 12 160 14.5 0.0 0.00 0.00 0.00 62 1016.0
20260510070049 12 160 14.5 0.0 0.00 0.00 0.00 62 1016.0
20260510064846 12 160 14.5 0.0 0.00 0.00 0.00 62 1016.0
20260510064550 12 160 14.5 0.0 0.00 0.00 0.00 62 1016.0
20260510063048 12 150 11.3 0.0 0.00 0.00 0.00 66 1016.0
20260510062844 12 150 11.3 0.0 0.00 0.00 0.00 66 1016.0
20260510061553 12 150 11.3 0.0 0.00 0.00 0.00 66 1016.0
20260510060843 11 140 9.7 0.0 0.00 0.00 0.00 71 1016.0
20260510060048 11 140 9.7 0.0 0.00 0.00 0.00 71 1016.0
20260510054847 11 140 9.7 0.0 0.00 0.00 0.00 71 1016.0
20260510054550 11 140 9.7 0.0 0.00 0.00 0.00 71 1016.0
20260510053048 10 120 12.9 0.0 0.00 0.00 0.00 75 1016.0
20260510052845 10 120 12.9 0.0 0.00 0.00 0.00 75 1016.0
20260510051551 10 120 12.9 0.0 0.00 0.00 0.00 75 1016.0
20260510050844 7 120 8.0 0.0 0.00 0.00 0.00 81 1016.0
20260510050048 7 120 8.0 0.0 0.00 0.00 0.00 81 1016.0
20260510044846 7 120 8.0 0.0 0.00 0.00 0.00 81 1016.0
20260510044550 7 120 8.0 0.0 0.00 0.00 0.00 81 1016.0
20260510043048 7 120 9.7 0.0 0.00 0.00 0.00 75 1016.0
20260510042844 7 120 9.7 0.0 0.00 0.00 0.00 75 1016.0
20260510041554 7 120 9.7 0.0 0.00 0.00 0.00 75 1016.0
20260510040843 6 110 11.3 0.0 0.00 0.00 0.00 86 1016.0
20260510040048 6 110 11.3 0.0 0.00 0.00 0.00 86 1016.0
20260510034846 6 110 11.3 0.0 0.00 0.00 0.00 86 1016.0
20260510034549 6 110 11.3 0.0 0.00 0.00 0.00 86 1016.0
20260510033048 7 120 11.3 0.0 0.00 0.00 0.00 81 1017.0
20260510032844 7 120 11.3 0.0 0.00 0.00 0.00 81 1017.0
20260510031550 7 120 11.3 0.0 0.00 0.00 0.00 81 1017.0
20260510030842 3 120 11.3 0.0 0.00 0.00 0.00 86 1017.0
20260510030050 3 120 11.3 0.0 0.00 0.00 0.00 86 1017.0
20260510024847 3 120 11.3 0.0 0.00 0.00 0.00 86 1017.0
20260510024549 3 120 11.3 0.0 0.00 0.00 0.00 86 1017.0
20260510023048 3 120 9.7 0.0 0.00 0.00 0.00 86 1017.0
20260510022845 3 120 9.7 0.0 0.00 0.00 0.00 86 1017.0
20260510021550 3 120 9.7 0.0 0.00 0.00 0.00 86 1017.0
20260510020844 3 110 8.0 0.0 0.00 0.00 0.00 86 1018.0
20260510020048 3 110 8.0 0.0 0.00 0.00 0.00 86 1018.0
20260510014847 3 110 8.0 0.0 0.00 0.00 0.00 86 1018.0
20260510014549 3 110 8.0 0.0 0.00 0.00 0.00 86 1018.0
20260510013048 6 120 3.2 0.0 0.00 0.00 0.00 80 1018.0
20260510012845 6 120 3.2 0.0 0.00 0.00 0.00 80 1018.0
20260510011550 6 120 3.2 0.0 0.00 0.00 0.00 80 1018.0
20260510010844 7 140 4.8 0.0 0.00 0.00 0.00 70 1018.0
20260510010048 7 140 4.8 0.0 0.00 0.00 0.00 70 1018.0
20260510004847 7 140 4.8 0.0 0.00 0.00 0.00 70 1018.0
20260510004549 7 140 4.8 0.0 0.00 0.00 0.00 70 1018.0
20260510003048 7 130 4.8 0.0 0.00 0.00 0.00 75 1018.0
20260510002845 7 130 4.8 0.0 0.00 0.00 0.00 75 1018.0
20260510001550 7 130 4.8 0.0 0.00 0.00 0.00 75 1018.0
20260510000844 7 110 1.6 0.0 0.00 0.00 0.00 75 1019.0
20260510000048 7 110 1.6 0.0 0.00 0.00 0.00 75 1019.0
20260509234847 7 110 1.6 0.0 0.00 0.00 0.00 75 1019.0
20260509234549 7 110 1.6 0.0 0.00 0.00 0.00 75 1019.0
20260509233048 7 0.0 0.0 0.00 0.00 0.00 70 1019.0
20260509232845 7 0.0 0.0 0.00 0.00 0.00 70 1019.0
20260509231549 7 0.0 0.0 0.00 0.00 0.00 70 1019.0
20260509230843 7 0.0 0.0 0.00 0.00 0.00 70 1019.0
20260509230047 7 0.0 0.0 0.00 0.00 0.00 70 1019.0
20260509224847 7 0.0 0.0 0.00 0.00 0.00 70 1019.0
20260509224550 7 0.0 0.0 0.00 0.00 0.00 70 1019.0
20260509223047 10 60 11.3 0.0 0.00 0.00 0.00 53 1019.0
20260509222846 10 60 11.3 0.0 0.00 0.00 0.00 53 1019.0
20260509221558 10 60 11.3 0.0 0.00 0.00 0.00 53 1019.0
20260509220844 10 50 11.3 0.0 0.00 0.00 0.00 53 1019.0
20260509220049 10 50 11.3 0.0 0.00 0.00 0.00 53 1019.0
20260509214853 10 50 11.3 0.0 0.00 0.00 0.00 53 1019.0
20260509214549 10 50 11.3 0.0 0.00 0.00 0.00 53 1019.0
20260509213047 11 50 11.3 0.0 0.00 0.00 0.00 50 1019.0
20260509212852 11 50 11.3 0.0 0.00 0.00 0.00 50 1019.0
20260509211550 11 50 11.3 0.0 0.00 0.00 0.00 50 1019.0
20260509210850 11 40 9.7 0.0 0.00 0.00 0.00 53 1019.0
20260509210048 11 40 9.7 0.0 0.00 0.00 0.00 53 1019.0
20260509204846 11 40 9.7 0.0 0.00 0.00 0.00 53 1019.0
20260509204549 11 40 9.7 0.0 0.00 0.00 0.00 53 1019.0
20260509203047 11 30 8.0 0.0 0.00 0.00 0.00 53 1019.0
20260509202845 11 30 8.0 0.0 0.00 0.00 0.00 53 1019.0
20260509201550 11 30 8.0 0.0 0.00 0.00 0.00 53 1019.0
20260509200843 12 30 8.0 0.0 0.00 0.00 0.00 50 1019.0
20260509200049 12 30 8.0 0.0 0.00 0.00 0.00 50 1019.0
20260509194844 12 30 8.0 0.0 0.00 0.00 0.00 50 1019.0
20260509194549 12 30 8.0 0.0 0.00 0.00 0.00 50 1019.0
20260509193057 12 30 8.0 0.0 0.00 0.00 0.00 47 1019.0
20260509192842 12 30 8.0 0.0 0.00 0.00 0.00 47 1019.0
20260509191550 12 30 8.0 0.0 0.00 0.00 0.00 47 1019.0
20260509190841 13 20 8.0 0.0 0.00 0.00 0.00 44 1019.0
20260509190048 13 20 8.0 0.0 0.00 0.00 0.00 44 1019.0
20260509184844 13 20 8.0 0.0 0.00 0.00 0.00 44 1019.0
20260509184549 13 20 8.0 0.0 0.00 0.00 0.00 44 1019.0
20260509183047 15 20 12.9 0.0 0.00 0.00 0.00 41 1019.0
20260509182843 15 20 12.9 0.0 0.00 0.00 0.00 41 1019.0
20260509181550 15 20 12.9 0.0 0.00 0.00 0.00 41 1019.0
20260509180841 16 10 12.9 0.0 0.00 0.00 0.00 38 1019.0
20260509180049 16 10 12.9 0.0 0.00 0.00 0.00 38 1019.0
20260509174845 16 10 12.9 0.0 0.00 0.00 0.00 38 1019.0
20260509174549 16 10 12.9 0.0 0.00 0.00 0.00 38 1019.0
20260509173047 16 360 14.5 0.0 0.00 0.00 0.00 38 1019.0
20260509172843 16 360 14.5 0.0 0.00 0.00 0.00 38 1019.0
20260509171654 16 360 14.5 0.0 0.00 0.00 0.00 38 1019.0
20260509170841 16 10 14.5 0.0 0.00 0.00 0.00 41 1019.0
20260509170048 16 10 14.5 0.0 0.00 0.00 0.00 41 1019.0
20260509164847 16 10 14.5 0.0 0.00 0.00 0.00 41 1019.0
20260509164549 16 10 14.5 0.0 0.00 0.00 0.00 41 1019.0
20260509163047 17 340 16.1 0.0 0.00 0.00 0.00 41 1019.0
20260509162846 17 340 16.1 0.0 0.00 0.00 0.00 41 1019.0
20260509161549 17 340 16.1 0.0 0.00 0.00 0.00 41 1019.0
20260509160844 17 320 16.1 0.0 0.00 0.00 0.00 41 1020.0
20260509160047 17 320 16.1 0.0 0.00 0.00 0.00 41 1020.0
20260509154846 17 320 16.1 0.0 0.00 0.00 0.00 41 1020.0
20260509154549 17 320 16.1 0.0 0.00 0.00 0.00 41 1020.0
20260509153047 17 310 12.9 0.0 0.00 0.00 0.00 36 1020.0
20260509152844 17 310 12.9 0.0 0.00 0.00 0.00 36 1020.0
20260509151550 17 310 12.9 0.0 0.00 0.00 0.00 36 1020.0
20260509150843 17 0.0 0.0 0.00 0.00 0.00 39 1020.0
20260509150048 17 0.0 0.0 0.00 0.00 0.00 39 1020.0
20260509144852 17 0.0 0.0 0.00 0.00 0.00 39 1020.0
20260509144548 17 0.0 0.0 0.00 0.00 0.00 39 1020.0
20260509143047 17 0.0 0.0 0.00 0.00 0.00 39 1020.0
20260509142850 17 0.0 0.0 0.00 0.00 0.00 39 1020.0
20260509141550 17 0.0 0.0 0.00 0.00 0.00 39 1020.0
20260509140849 17 0.0 0.0 0.00 0.00 0.00 39 1020.0
20260509140049 17 0.0 0.0 0.00 0.00 0.00 39 1020.0
20260509134845 17 0.0 0.0 0.00 0.00 0.00 39 1020.0
20260509134548 17 0.0 0.0 0.00 0.00 0.00 39 1020.0
20260509133047 17 60 8.0 0.0 0.00 0.00 0.00 41 1020.0
20260509132843 17 60 8.0 0.0 0.00 0.00 0.00 41 1020.0
20260509131550 17 60 8.0 0.0 0.00 0.00 0.00 41 1020.0
20260509130842 17 0.0 0.0 0.00 0.00 0.00 41 1021.0
20260509130047 17 0.0 0.0 0.00 0.00 0.00 41 1021.0
20260509124845 17 0.0 0.0 0.00 0.00 0.00 41 1021.0
20260509124548 17 0.0 0.0 0.00 0.00 0.00 41 1021.0
20260509123046 17 130 11.3 0.0 0.00 0.00 0.00 39 1021.0
20260509122843 17 130 11.3 0.0 0.00 0.00 0.00 39 1021.0
20260509121549 17 130 11.3 0.0 0.00 0.00 0.00 39 1021.0
20260509120842 16 50 9.7 0.0 0.00 0.00 0.00 44 1021.0
20260509120047 16 50 9.7 0.0 0.00 0.00 0.00 44 1021.0
20260509114845 16 50 9.7 0.0 0.00 0.00 0.00 44 1021.0
20260509114549 16 50 9.7 0.0 0.00 0.00 0.00 44 1021.0
20260509113047 17 0.0 0.0 0.00 0.00 0.00 45 1021.0
20260509112843 17 0.0 0.0 0.00 0.00 0.00 45 1021.0
20260509111551 17 0.0 0.0 0.00 0.00 0.00 45 1021.0
20260509110842 16 0.0 0.0 0.00 0.00 0.00 47 1021.0
20260509110047 16 0.0 0.0 0.00 0.00 0.00 47 1021.0
20260509104844 16 0.0 0.0 0.00 0.00 0.00 47 1021.0
20260509104548 16 0.0 0.0 0.00 0.00 0.00 47 1021.0
20260509103046 16 170 12.9 0.0 0.00 0.00 0.00 44 1021.0
20260509102842 16 170 12.9 0.0 0.00 0.00 0.00 44 1021.0
20260509101550 16 170 12.9 0.0 0.00 0.00 0.00 44 1021.0
20260509100840 15 0.0 0.0 0.00 0.00 0.00 44 1022.0
20260509100048 15 0.0 0.0 0.00 0.00 0.00 44 1022.0
20260509094844 15 0.0 0.0 0.00 0.00 0.00 44 1022.0
20260509094549 15 0.0 0.0 0.00 0.00 0.00 44 1022.0